STARLINK-35720

Last updated on Fri Dec 19 2025 00:02:10 GMT+0000 (Coordinated Universal Time)

1 67052U 25294Y 25351.83335648 -.01401019 58639-3 -31831-2 0 9998 2 67052 43.0004 151.2383 0001784 283.0487 150.5069 15.96650748 2120
UTC large
Height (km)
Speed (km/s)
/
Latitude / Longitude
Inclination (degrees)
Orbital Period (minutes)
Azimuth
Elevation
Range (km)
Doppler Factor

Next 0 passes for location: London (51.5072 / 0.1276)

Sorry there are no passes over London.